Location: Keppel Henge
(44.7900°N, 80.9447°W)
Time: 20:14:27
(UTC-04:00)

Tiangong 2 - Pass Details

Date: 09 October 2017
Orbit: 388 x 391 km, 42.8° (Epoch: 23 October)

Event Time Altitude Azimuth Distance (km) Brightness Sun altitude
Exits shadow 06:28:22 11° 218° (SW) 1,378 3.5 -12.1°
Maximum altitude 06:31:03 27° 158° (SSE) 778 2.8 -11.6°
Drops below altitude 10° 06:33:50 10° 98° (E) 1,423 5.4 -11.1°
Sets 06:36:05 0° 86° (E) 2,281 7.3 -10.7°
